INTELSAT 33E DEB, 64394

Orbit data source: Space-Track

INTELSAT 33E DEB, 64394 is space debris in GEO originally from a launch on Wed, 24 Aug 2016 UTC launched from the French Guiana (FRGUI). Debris objects in space refer to the collection of defunct objects orbiting the Earth. Examples of debris include non-operational satellites, rocket bodies, and fragments generated from explosions, collisions, or faulty payload assembly.

Not visible in the next 10 days
Identifier
64394, 2016-053Y
Orbit
GEO
Country
Flag of UnknownUnknown / ITSO
Related business
Manufacturer
Boeing/ES
Mission
Spacecraft
Bus & Motor
Unknown
Mass
Unknown
Launch date (UTC)
2016-08-24 (9 years ago)
Launch vehicle
Unknown
Launch site
French Guiana (FRGUI)
Object type
Payload
Rocket body
Debris
Shape & HBR
Unknown shape, 1.1 m
Radar Cross Section
RCS unknown

Expand to show TLE details & history
Last TLE update: 3 days ago

TLE from 3 days ago
0 INTELSAT 33E DEB
1 64394U 16053Y   25311.65090989 -.00000175  00000-0  00000-0 0  9993
2 64394   0.9845  28.1649 0612781 347.5359 346.1814  1.08355483  4047
Epoch: 2025-11-07T15:37Z
TLE epoch observation values (Epoch: 2025-11-07T15:37:18.614Z)
Latitude
-0.44395°
Longitude
78.58397°
Altitude
31,287.114 km
Speed
3.348 km/s
True Right ascension
00h 00m 00s
True Declination
0° 26' 36"
Sunlit
Object was in daylight at epoch
Visualization orbit readout
Latitude
Unknown
Longitude
Unknown
Altitude
Unknown
Speed
Unknown
Apparent Right ascension
Unknown
Apparent Declination
Unknown
Sunlit
N/A
Visualization observer readout
Local Sidereal Time
03:25:35
Azimuth
Unknown
Elevation
Unknown
Doppler factor
Unknown
Orbital elements
Apogee altitude
36,117.34 km
Perigee altitude
31,209.97 km
Semi-major axis
40,041.792 km
Eccentricity
0.06128
Inclination
0.9845°
RAAN
28.1649°
Arg. of periapsis
347.5359°
True anomaly
344.37022°
Mean anomaly
346.1814°
Eccentric anomaly
345.28986°
Mean motion
0.27088 °/min
Orbital period
1,329.01 mins
BSTAR
0
Loading maneuver chart data...
Computing Atmospheric mass density...
Loading historical data...
Loading historical data...
Loading historical data...
Loading historical data...
Loading historical data...
Loading historical data...
Loading historical data...

Documentation

Showing up to 5 results
|